contact: severine.martini@mio.osupytheas.fr, dominique.lefevre@mio.osupytheas.fr
Project:EMSO Ligure-ouest http://www.emso-fr.org/EMSO-France
Sensor Microcat Sea-Bird SBE37 SMP,  Serial 57510 
DOI : "https://doi.org/10.17882/97948" 
Title:EMSO Ligure Ouest : Data Bathybot capteur Microcat - deploiement 2023-04-28
Datetime,Profondeur,Latitude,Longitude,Temperature,Conductivite,Pression,Salinite
time,m,degree_north,degree_east,degree_C,S/m,db,PSU 
2023-10-20T00:00:49,2420,42.8014,5.9826,13.2990,4.59923,2453.649,38.4871
2023-10-20T00:03:49,2420,42.8014,5.9826,13.2990,4.59923,2453.649,38.4871
2023-10-20T00:06:49,2420,42.8014,5.9826,13.2984,4.59922,2453.627,38.4878
2023-10-20T00:09:49,2420,42.8014,5.9826,13.2997,4.59923,2453.649,38.4865
2023-10-20T00:12:49,2420,42.8014,5.9826,13.2994,4.59924,2453.627,38.4869
2023-10-20T00:15:49,2420,42.8014,5.9826,13.2987,4.59922,2453.627,38.4874
2023-10-20T00:18:49,2420,42.8014,5.9826,13.2980,4.59924,2453.604,38.4883
2023-10-20T00:21:49,2420,42.8014,5.9826,13.3015,4.59922,2453.627,38.4847
2023-10-20T00:24:49,2420,42.8014,5.9826,13.2980,4.59922,2453.604,38.4882
2023-10-20T00:27:49,2420,42.8014,5.9826,13.2981,4.59923,2453.604,38.4881
2023-10-20T00:30:49,2420,42.8014,5.9826,13.2987,4.59923,2453.627,38.4875
2023-10-20T00:33:49,2420,42.8014,5.9826,13.2997,4.59928,2453.582,38.4870
2023-10-20T00:36:49,2420,42.8014,5.9826,13.2987,4.59923,2453.604,38.4875
2023-10-20T00:39:49,2420,42.8014,5.9826,13.2985,4.59941,2453.649,38.4894
2023-10-20T00:42:49,2420,42.8014,5.9826,13.2983,4.59922,2453.582,38.4879
2023-10-20T00:45:49,2420,42.8014,5.9826,13.2982,4.59922,2453.604,38.4879
2023-10-20T00:48:49,2420,42.8014,5.9826,13.2985,4.59922,2453.627,38.4876
2023-10-20T00:51:49,2420,42.8014,5.9826,13.2988,4.59922,2453.627,38.4873
2023-10-20T00:54:49,2420,42.8014,5.9826,13.2983,4.59922,2453.627,38.4878
2023-10-20T00:57:49,2420,42.8014,5.9826,13.2985,4.59922,2453.612,38.4877
2023-10-20T01:00:49,2420,42.8014,5.9826,13.2986,4.59922,2453.604,38.4875
2023-10-20T01:03:49,2420,42.8014,5.9826,13.2979,4.59922,2453.604,38.4882
2023-10-20T01:06:49,2420,42.8014,5.9826,13.2990,4.59933,2453.627,38.4881
2023-10-20T01:09:49,2420,42.8014,5.9826,13.2983,4.59922,2453.627,38.4878
2023-10-20T01:12:49,2420,42.8014,5.9826,13.2983,4.59923,2453.627,38.4879
2023-10-20T01:15:49,2420,42.8014,5.9826,13.2974,4.59922,2453.582,38.4887
2023-10-20T01:18:49,2420,42.8014,5.9826,13.2983,4.59939,2453.582,38.4894
2023-10-20T01:21:49,2420,42.8014,5.9826,13.2982,4.59922,2453.627,38.4880
2023-10-20T01:24:49,2420,42.8014,5.9826,13.2983,4.59926,2453.604,38.4881
2023-10-20T01:27:49,2420,42.8014,5.9826,13.2978,4.59921,2453.627,38.4883
2023-10-20T01:30:49,2420,42.8014,5.9826,13.2985,4.59923,2453.567,38.4878
2023-10-20T01:33:49,2420,42.8014,5.9826,13.2995,4.59922,2453.604,38.4867
2023-10-20T01:36:49,2420,42.8014,5.9826,13.2986,4.59922,2453.590,38.4876
2023-10-20T01:39:49,2420,42.8014,5.9826,13.2982,4.59922,2453.627,38.4880
2023-10-20T01:42:49,2420,42.8014,5.9826,13.2995,4.59926,2453.582,38.4870
2023-10-20T01:45:49,2420,42.8014,5.9826,13.2982,4.59922,2453.627,38.4880
2023-10-20T01:48:49,2420,42.8014,5.9826,13.2981,4.59922,2453.567,38.4880
2023-10-20T01:51:49,2420,42.8014,5.9826,13.2990,4.59922,2453.582,38.4872
2023-10-20T01:54:49,2420,42.8014,5.9826,13.2982,4.59922,2453.582,38.4879
2023-10-20T01:57:49,2420,42.8014,5.9826,13.2987,4.59922,2453.604,38.4874
2023-10-20T02:00:49,2420,42.8014,5.9826,13.2994,4.59922,2453.604,38.4868
2023-10-20T02:03:49,2420,42.8014,5.9826,13.2978,4.59922,2453.604,38.4883
2023-10-20T02:06:49,2420,42.8014,5.9826,13.2990,4.59922,2453.559,38.4872
2023-10-20T02:09:49,2420,42.8014,5.9826,13.2980,4.59922,2453.604,38.4881
2023-10-20T02:12:49,2420,42.8014,5.9826,13.2992,4.59922,2453.559,38.4870
2023-10-20T02:15:49,2420,42.8014,5.9826,13.2988,4.59922,2453.604,38.4873
2023-10-20T02:18:49,2420,42.8014,5.9826,13.2982,4.59924,2453.604,38.4881
2023-10-20T02:21:50,2420,42.8014,5.9826,13.2985,4.59922,2453.559,38.4876
2023-10-20T02:24:49,2420,42.8014,5.9826,13.2975,4.59922,2453.574,38.4886
2023-10-20T02:27:49,2420,42.8014,5.9826,13.2986,4.59922,2453.559,38.4876
2023-10-20T02:30:49,2420,42.8014,5.9826,13.2986,4.59922,2453.604,38.4876
2023-10-20T02:33:49,2420,42.8014,5.9826,13.2993,4.59922,2453.559,38.4868
2023-10-20T02:36:49,2420,42.8014,5.9826,13.2983,4.59922,2453.559,38.4878
2023-10-20T02:39:49,2420,42.8014,5.9826,13.2995,4.59922,2453.604,38.4866
2023-10-20T02:42:49,2420,42.8014,5.9826,13.2984,4.59922,2453.582,38.4878
2023-10-20T02:45:49,2420,42.8014,5.9826,13.2985,4.59922,2453.596,38.4877
2023-10-20T02:48:49,2420,42.8014,5.9826,13.2980,4.59922,2453.582,38.4881
2023-10-20T02:51:49,2420,42.8014,5.9826,13.2982,4.59922,2453.537,38.4880
2023-10-20T02:54:49,2420,42.8014,5.9826,13.2989,4.59922,2453.559,38.4873
2023-10-20T02:57:49,2420,42.8014,5.9826,13.2981,4.59922,2453.559,38.4881
2023-10-20T03:00:50,2420,42.8014,5.9826,13.2979,4.59922,2453.582,38.4882
2023-10-20T03:03:49,2420,42.8014,5.9826,13.2978,4.59922,2453.544,38.4884
2023-10-20T03:06:49,2420,42.8014,5.9826,13.2983,4.59923,2453.574,38.4879
2023-10-20T03:09:49,2420,42.8014,5.9826,13.2983,4.59922,2453.559,38.4878
2023-10-20T03:12:49,2420,42.8014,5.9826,13.2978,4.59922,2453.559,38.4883
2023-10-20T03:15:49,2420,42.8014,5.9826,13.2982,4.59923,2453.590,38.4881
2023-10-20T03:18:49,2420,42.8014,5.9826,13.2990,4.59924,2453.582,38.4873
2023-10-20T03:21:49,2420,42.8014,5.9826,13.2985,4.59928,2453.559,38.4883
2023-10-20T03:24:49,2420,42.8014,5.9826,13.2979,4.59923,2453.559,38.4884
2023-10-20T03:27:49,2420,42.8014,5.9826,13.2982,4.59926,2453.567,38.4884
2023-10-20T03:30:49,2420,42.8014,5.9826,13.2984,4.59929,2453.559,38.4884
2023-10-20T03:33:49,2420,42.8014,5.9826,13.2985,4.59923,2453.582,38.4878
2023-10-20T03:36:49,2420,42.8014,5.9826,13.2978,4.59925,2453.582,38.4886
2023-10-20T03:39:49,2420,42.8014,5.9826,13.2982,4.59929,2453.559,38.4886
2023-10-20T03:42:49,2420,42.8014,5.9826,13.2978,4.59923,2453.567,38.4884
2023-10-20T03:45:49,2420,42.8014,5.9826,13.2980,4.59923,2453.619,38.4882
2023-10-20T03:48:49,2420,42.8014,5.9826,13.2987,4.59922,2453.582,38.4875
2023-10-20T03:51:49,2420,42.8014,5.9826,13.2983,4.59932,2453.559,38.4888
2023-10-20T03:54:49,2420,42.8014,5.9826,13.2984,4.59924,2453.582,38.4879
2023-10-20T03:57:49,2420,42.8014,5.9826,13.2986,4.59926,2453.559,38.4878
2023-10-20T04:00:50,2420,42.8014,5.9826,13.2984,4.59924,2453.544,38.4879
2023-10-20T04:03:49,2420,42.8014,5.9826,13.2978,4.59929,2453.537,38.4890
2023-10-20T04:06:49,2420,42.8014,5.9826,13.2980,4.59927,2453.582,38.4886
2023-10-20T04:09:49,2420,42.8014,5.9826,13.2987,4.59922,2453.559,38.4875
2023-10-20T04:12:49,2420,42.8014,5.9826,13.2980,4.59928,2453.559,38.4887
2023-10-20T04:15:49,2420,42.8014,5.9826,13.2980,4.59923,2453.559,38.4882
2023-10-20T04:18:49,2420,42.8014,5.9826,13.2981,4.59927,2453.619,38.4885
2023-10-20T04:21:49,2420,42.8014,5.9826,13.2982,4.59924,2453.582,38.4882
2023-10-20T04:24:49,2420,42.8014,5.9826,13.2986,4.59924,2453.559,38.4877
2023-10-20T04:27:49,2420,42.8014,5.9826,13.2982,4.59925,2453.537,38.4882
2023-10-20T04:30:49,2420,42.8014,5.9826,13.2985,4.59924,2453.559,38.4879
2023-10-20T04:33:49,2420,42.8014,5.9826,13.2982,4.59926,2453.604,38.4884
2023-10-20T04:36:49,2420,42.8014,5.9826,13.2984,4.59923,2453.559,38.4878
2023-10-20T04:39:49,2420,42.8014,5.9826,13.2978,4.59923,2453.582,38.4885
2023-10-20T04:42:49,2420,42.8014,5.9826,13.2980,4.59924,2453.582,38.4883
2023-10-20T04:45:49,2420,42.8014,5.9826,13.2979,4.59923,2453.582,38.4883
2023-10-20T04:48:49,2420,42.8014,5.9826,13.2980,4.59925,2453.582,38.4884
2023-10-20T04:51:49,2420,42.8014,5.9826,13.2979,4.59926,2453.559,38.4886
2023-10-20T04:54:49,2420,42.8014,5.9826,13.2985,4.59926,2453.574,38.4881
2023-10-20T04:57:49,2420,42.8014,5.9826,13.2988,4.59925,2453.559,38.4876
2023-10-20T05:00:49,2420,42.8014,5.9826,13.2983,4.59923,2453.582,38.4879
2023-10-20T05:03:49,2420,42.8014,5.9826,13.2983,4.59925,2453.619,38.4881
2023-10-20T05:06:49,2420,42.8014,5.9826,13.2977,4.59925,2453.596,38.4887
2023-10-20T05:09:49,2420,42.8014,5.9826,13.2987,4.59924,2453.559,38.4876
2023-10-20T05:12:49,2420,42.8014,5.9826,13.2982,4.59926,2453.582,38.4883
2023-10-20T05:15:49,2420,42.8014,5.9826,13.2982,4.59932,2453.567,38.4889
2023-10-20T05:18:49,2420,42.8014,5.9826,13.2988,4.59926,2453.582,38.4877
2023-10-20T05:21:49,2420,42.8014,5.9826,13.2979,4.59926,2453.559,38.4886
2023-10-20T05:24:49,2420,42.8014,5.9826,13.2981,4.59926,2453.604,38.4884
2023-10-20T05:27:49,2420,42.8014,5.9826,13.2983,4.59923,2453.559,38.4879
2023-10-20T05:30:49,2420,42.8014,5.9826,13.2986,4.59937,2453.604,38.4890
2023-10-20T05:33:49,2420,42.8014,5.9826,13.2988,4.59928,2453.582,38.4879
2023-10-20T05:36:49,2420,42.8014,5.9826,13.2981,4.59927,2453.582,38.4885
2023-10-20T05:39:49,2420,42.8014,5.9826,13.2999,4.59926,2453.582,38.4866
2023-10-20T05:42:49,2420,42.8014,5.9826,13.2992,4.59926,2453.559,38.4873
2023-10-20T05:45:49,2420,42.8014,5.9826,13.2980,4.59926,2453.582,38.4885
2023-10-20T05:48:49,2420,42.8014,5.9826,13.2979,4.59954,2453.604,38.4912
2023-10-20T05:51:49,2420,42.8014,5.9826,13.2981,4.59926,2453.559,38.4884
2023-10-20T05:54:49,2420,42.8014,5.9826,13.2991,4.59924,2453.604,38.4872
2023-10-20T05:57:49,2420,42.8014,5.9826,13.2979,4.59925,2453.604,38.4884
2023-10-20T06:00:49,2420,42.8014,5.9826,13.2979,4.59940,2453.604,38.4898
2023-10-20T06:03:49,2420,42.8014,5.9826,13.2981,4.59927,2453.619,38.4885
2023-10-20T06:06:49,2420,42.8014,5.9826,13.2978,4.59928,2453.604,38.4888
2023-10-20T06:09:49,2420,42.8014,5.9826,13.2979,4.59937,2453.604,38.4897
2023-10-20T06:12:49,2420,42.8014,5.9826,13.2984,4.59925,2453.544,38.4880
2023-10-20T06:15:49,2420,42.8014,5.9826,13.2984,4.59933,2453.604,38.4887
2023-10-20T06:18:49,2420,42.8014,5.9826,13.2985,4.59926,2453.604,38.4880
2023-10-20T06:21:49,2420,42.8014,5.9826,13.2976,4.59931,2453.582,38.4894
2023-10-20T06:24:49,2420,42.8014,5.9826,13.2978,4.59940,2453.612,38.4900
2023-10-20T06:27:49,2420,42.8014,5.9826,13.2976,4.59932,2453.596,38.4895
2023-10-20T06:30:49,2420,42.8014,5.9826,13.2981,4.59931,2453.604,38.4888
2023-10-20T06:33:49,2420,42.8014,5.9826,13.2978,4.59933,2453.604,38.4894
2023-10-20T06:36:49,2420,42.8014,5.9826,13.2976,4.59931,2453.582,38.4893
2023-10-20T06:39:49,2420,42.8014,5.9826,13.2979,4.59928,2453.604,38.4888
2023-10-20T06:42:49,2420,42.8014,5.9826,13.2979,4.59929,2453.627,38.4889
2023-10-20T06:45:49,2420,42.8014,5.9826,13.2980,4.59957,2453.627,38.4914
2023-10-20T06:48:49,2420,42.8014,5.9826,13.2992,4.59935,2453.664,38.4881
2023-10-20T06:51:49,2420,42.8014,5.9826,13.2980,4.59937,2453.649,38.4895
2023-10-20T06:54:49,2420,42.8014,5.9826,13.2983,4.59942,2453.612,38.4897
2023-10-20T06:57:49,2420,42.8014,5.9826,13.2979,4.59936,2453.627,38.4895
2023-10-20T07:00:49,2420,42.8014,5.9826,13.2976,4.59940,2453.627,38.4902
2023-10-20T07:03:49,2420,42.8014,5.9826,13.2977,4.59941,2453.649,38.4902
2023-10-20T07:06:49,2420,42.8014,5.9826,13.2976,4.59940,2453.649,38.4901
2023-10-20T07:09:49,2420,42.8014,5.9826,13.2980,4.59936,2453.672,38.4894
2023-10-20T07:12:49,2420,42.8014,5.9826,13.2985,4.59935,2453.672,38.4888
2023-10-20T07:15:49,2420,42.8014,5.9826,13.2979,4.59935,2453.687,38.4894
2023-10-20T07:18:49,2420,42.8014,5.9826,13.2978,4.59936,2453.649,38.4896
2023-10-20T07:21:49,2420,42.8014,5.9826,13.2979,4.59927,2453.672,38.4886
2023-10-20T07:24:49,2420,42.8014,5.9826,13.2980,4.59928,2453.627,38.4886
2023-10-20T07:27:49,2420,42.8014,5.9826,13.2975,4.59931,2453.649,38.4895
2023-10-20T07:30:49,2420,42.8014,5.9826,13.2984,4.59946,2453.672,38.4900
2023-10-20T07:33:49,2420,42.8014,5.9826,13.2975,4.59936,2453.635,38.4899
2023-10-20T07:36:49,2420,42.8014,5.9826,13.2976,4.59939,2453.657,38.4901
2023-10-20T07:39:49,2420,42.8014,5.9826,13.2974,4.59935,2453.672,38.4899
2023-10-20T07:42:49,2420,42.8014,5.9826,13.2978,4.59940,2453.672,38.4901
2023-10-20T07:45:49,2420,42.8014,5.9826,13.2986,4.59940,2453.649,38.4892
2023-10-20T07:48:49,2420,42.8014,5.9826,13.2979,4.59943,2453.672,38.4901
2023-10-20T07:51:49,2420,42.8014,5.9826,13.2978,4.59937,2453.695,38.4897
2023-10-20T07:54:49,2420,42.8014,5.9826,13.2986,4.59929,2453.672,38.4882
2023-10-20T07:57:49,2420,42.8014,5.9826,13.2974,4.59939,2453.695,38.4903
2023-10-20T08:00:49,2420,42.8014,5.9826,13.2973,4.59940,2453.657,38.4905
2023-10-20T08:03:49,2420,42.8014,5.9826,13.2985,4.59941,2453.672,38.4894
2023-10-20T08:06:49,2420,42.8014,5.9826,13.2975,4.59936,2453.680,38.4899
2023-10-20T08:09:49,2420,42.8014,5.9826,13.2978,4.59929,2453.695,38.4889
2023-10-20T08:12:50,2420,42.8014,5.9826,13.2975,4.59940,2453.695,38.4903
2023-10-20T08:15:49,2420,42.8014,5.9826,13.2978,4.59937,2453.717,38.4896
2023-10-20T08:18:49,2420,42.8014,5.9826,13.2977,4.59940,2453.717,38.4901
2023-10-20T08:21:49,2420,42.8014,5.9826,13.2980,4.59942,2453.695,38.4899
2023-10-20T08:24:49,2420,42.8014,5.9826,13.2983,4.59947,2453.680,38.4901
2023-10-20T08:27:49,2420,42.8014,5.9826,13.2978,4.59932,2453.740,38.4892
2023-10-20T08:30:49,2420,42.8014,5.9826,13.2976,4.59940,2453.695,38.4902
2023-10-20T08:33:49,2420,42.8014,5.9826,13.2979,4.59934,2453.717,38.4893
2023-10-20T08:36:49,2420,42.8014,5.9826,13.2978,4.59933,2453.695,38.4893
2023-10-20T08:39:49,2420,42.8014,5.9826,13.2983,4.59928,2453.717,38.4884
2023-10-20T08:42:49,2420,42.8014,5.9826,13.2978,4.59930,2453.717,38.4890
2023-10-20T08:45:49,2420,42.8014,5.9826,13.2976,4.59933,2453.717,38.4895
2023-10-20T08:48:49,2420,42.8014,5.9826,13.2975,4.59937,2453.740,38.4900
2023-10-20T08:51:50,2420,42.8014,5.9826,13.2978,4.59933,2453.740,38.4893
2023-10-20T08:54:49,2420,42.8014,5.9826,13.2975,4.59943,2453.732,38.4905
2023-10-20T08:57:49,2420,42.8014,5.9826,13.2985,4.59962,2453.717,38.4914
2023-10-20T09:00:49,2420,42.8014,5.9826,13.2985,4.59935,2453.702,38.4888
2023-10-20T09:03:49,2420,42.8014,5.9826,13.2979,4.59934,2453.740,38.4894
2023-10-20T09:06:49,2420,42.8014,5.9826,13.2978,4.59945,2453.740,38.4905
2023-10-20T09:09:49,2420,42.8014,5.9826,13.2985,4.59935,2453.740,38.4888
2023-10-20T09:12:49,2420,42.8014,5.9826,13.2979,4.59932,2453.725,38.4891
2023-10-20T09:15:49,2420,42.8014,5.9826,13.2977,4.59931,2453.717,38.4892
2023-10-20T09:18:49,2420,42.8014,5.9826,13.2977,4.59956,2453.717,38.4916
2023-10-20T09:21:49,2420,42.8014,5.9826,13.2981,4.59939,2453.740,38.4896
2023-10-20T09:24:49,2420,42.8014,5.9826,13.2976,4.59943,2453.740,38.4904
2023-10-20T09:27:49,2420,42.8014,5.9826,13.2981,4.59937,2453.740,38.4893
2023-10-20T09:30:50,2420,42.8014,5.9826,13.2975,4.59941,2453.740,38.4903
2023-10-20T09:33:49,2420,42.8014,5.9826,13.2981,4.59937,2453.762,38.4894
2023-10-20T09:36:49,2420,42.8014,5.9826,13.2977,4.59938,2453.740,38.4899
2023-10-20T09:39:49,2420,42.8014,5.9826,13.2980,4.59937,2453.762,38.4894
2023-10-20T09:42:49,2420,42.8014,5.9826,13.2979,4.59937,2453.748,38.4896
2023-10-20T09:45:49,2420,42.8014,5.9826,13.2986,4.59929,2453.740,38.4881
2023-10-20T09:48:49,2420,42.8014,5.9826,13.2979,4.59951,2453.762,38.4908
2023-10-20T09:51:49,2420,42.8014,5.9826,13.2982,4.59946,2453.702,38.4902
2023-10-20T09:54:49,2420,42.8014,5.9826,13.2987,4.59929,2453.740,38.4880
2023-10-20T09:57:49,2420,42.8014,5.9826,13.3011,4.59932,2453.800,38.4859
2023-10-20T10:00:49,2420,42.8014,5.9826,13.2979,4.59935,2453.748,38.4894
2023-10-20T10:03:49,2420,42.8014,5.9826,13.2978,4.59963,2453.725,38.4921
2023-10-20T10:06:49,2420,42.8014,5.9826,13.2979,4.59942,2453.762,38.4900
2023-10-20T10:09:49,2420,42.8014,5.9826,13.2978,4.59960,2453.740,38.4919
2023-10-20T10:12:49,2420,42.8014,5.9826,13.2978,4.59939,2453.762,38.4898
2023-10-20T10:15:49,2420,42.8014,5.9826,13.2976,4.59939,2453.762,38.4900
2023-10-20T10:18:49,2420,42.8014,5.9826,13.2978,4.59936,2453.740,38.4896
2023-10-20T10:21:49,2420,42.8014,5.9826,13.2982,4.59932,2453.725,38.4888
2023-10-20T10:24:49,2420,42.8014,5.9826,13.2977,4.59926,2453.762,38.4887
2023-10-20T10:27:49,2420,42.8014,5.9826,13.2979,4.59937,2453.762,38.4895
2023-10-20T10:30:49,2420,42.8014,5.9826,13.2983,4.59968,2453.740,38.4921
2023-10-20T10:33:49,2420,42.8014,5.9826,13.2973,4.59931,2453.785,38.4896
2023-10-20T10:36:49,2420,42.8014,5.9826,13.2978,4.59949,2453.740,38.4908
2023-10-20T10:39:49,2420,42.8014,5.9826,13.2981,4.59956,2453.762,38.4911
2023-10-20T10:42:49,2420,42.8014,5.9826,13.2979,4.59949,2453.740,38.4907
2023-10-20T10:45:49,2420,42.8014,5.9826,13.2979,4.59926,2453.740,38.4885
2023-10-20T10:48:49,2420,42.8014,5.9826,13.2978,4.59931,2453.785,38.4891
2023-10-20T10:51:49,2420,42.8014,5.9826,13.2975,4.59928,2453.762,38.4891
2023-10-20T10:54:49,2420,42.8014,5.9826,13.2980,4.59928,2453.762,38.4887
2023-10-20T10:57:49,2420,42.8014,5.9826,13.2978,4.59933,2453.762,38.4893
2023-10-20T11:00:49,2420,42.8014,5.9826,13.2984,4.59946,2453.748,38.4899
2023-10-20T11:03:49,2420,42.8014,5.9826,13.2999,4.59934,2453.762,38.4873
2023-10-20T11:06:49,2420,42.8014,5.9826,13.2998,4.59929,2453.807,38.4870
2023-10-20T11:09:49,2420,42.8014,5.9826,13.2979,4.59929,2453.740,38.4889
2023-10-20T11:12:49,2420,42.8014,5.9826,13.3001,4.59929,2453.717,38.4866
2023-10-20T11:15:49,2420,42.8014,5.9826,13.2991,4.59931,2453.762,38.4878
2023-10-20T11:18:49,2420,42.8014,5.9826,13.3011,4.59953,2453.762,38.4879
2023-10-20T11:21:49,2420,42.8014,5.9826,13.3000,4.59931,2453.762,38.4870
2023-10-20T11:24:49,2420,42.8014,5.9826,13.2979,4.59927,2453.762,38.4886
2023-10-20T11:27:49,2420,42.8014,5.9826,13.3014,4.59926,2453.740,38.4851
2023-10-20T11:30:49,2420,42.8014,5.9826,13.2988,4.59927,2453.748,38.4877
2023-10-20T11:33:49,2420,42.8014,5.9826,13.3005,4.59931,2453.785,38.4864
2023-10-20T11:36:49,2420,42.8014,5.9826,13.2998,4.59926,2453.748,38.4866
2023-10-20T11:39:49,2420,42.8014,5.9826,13.2974,4.59926,2453.740,38.4891
2023-10-20T11:42:49,2420,42.8014,5.9826,13.2991,4.59928,2453.740,38.4875
2023-10-20T11:45:49,2420,42.8014,5.9826,13.2980,4.59928,2453.740,38.4887
2023-10-20T11:48:49,2420,42.8014,5.9826,13.2980,4.59925,2453.785,38.4883
2023-10-20T11:51:49,2420,42.8014,5.9826,13.2982,4.59926,2453.717,38.4883
2023-10-20T11:54:50,2420,42.8014,5.9826,13.2979,4.59958,2453.702,38.4915
2023-10-20T11:57:49,2420,42.8014,5.9826,13.2980,4.59928,2453.740,38.4886
2023-10-20T12:00:49,2420,42.8014,5.9826,13.2986,4.59925,2453.853,38.4877
2023-10-20T12:03:50,2420,42.8014,5.9826,13.2988,4.59926,2453.807,38.4876
2023-10-20T12:06:49,2420,42.8014,5.9826,13.3010,4.59925,2453.807,38.4854
2023-10-20T12:09:49,2420,42.8014,5.9826,13.2981,4.59926,2453.748,38.4883
2023-10-20T12:12:49,2420,42.8014,5.9826,13.2988,4.59926,2453.785,38.4876
2023-10-20T12:15:49,2420,42.8014,5.9826,13.2978,4.59926,2453.770,38.4886
2023-10-20T12:18:49,2420,42.8014,5.9826,13.2982,4.59926,2453.800,38.4883
2023-10-20T12:21:49,2420,42.8014,5.9826,13.2982,4.59926,2453.785,38.4882
2023-10-20T12:24:49,2420,42.8014,5.9826,13.2980,4.59925,2453.807,38.4883
2023-10-20T12:27:49,2420,42.8014,5.9826,13.2981,4.59926,2453.762,38.4883
2023-10-20T12:30:49,2420,42.8014,5.9826,13.2978,4.59925,2453.777,38.4886
2023-10-20T12:33:49,2420,42.8014,5.9826,13.2984,4.59925,2453.748,38.4879
2023-10-20T12:36:49,2420,42.8014,5.9826,13.2988,4.59926,2453.762,38.4876
2023-10-20T12:39:49,2420,42.8014,5.9826,13.2983,4.59924,2453.748,38.4879
2023-10-20T12:42:49,2420,42.8014,5.9826,13.2976,4.59926,2453.762,38.4888
2023-10-20T12:45:49,2420,42.8014,5.9826,13.2981,4.59926,2453.762,38.4883
2023-10-20T12:48:49,2420,42.8014,5.9826,13.2981,4.59925,2453.785,38.4882
2023-10-20T12:51:49,2420,42.8014,5.9826,13.2981,4.59926,2453.740,38.4883
2023-10-20T12:54:49,2420,42.8014,5.9826,13.2981,4.59924,2453.762,38.4881
2023-10-20T12:57:49,2420,42.8014,5.9826,13.2976,4.59923,2453.762,38.4886
2023-10-20T13:00:50,2420,42.8014,5.9826,13.2978,4.59924,2453.762,38.4884
2023-10-20T13:03:49,2420,42.8014,5.9826,13.2979,4.59923,2453.740,38.4883
2023-10-20T13:06:49,2420,42.8014,5.9826,13.2978,4.59924,2453.740,38.4885
2023-10-20T13:09:49,2420,42.8014,5.9826,13.2982,4.59923,2453.762,38.4880
2023-10-20T13:12:49,2420,42.8014,5.9826,13.2978,4.59925,2453.740,38.4885
2023-10-20T13:15:49,2420,42.8014,5.9826,13.2982,4.59925,2453.740,38.4882
2023-10-20T13:18:49,2420,42.8014,5.9826,13.2991,4.59925,2453.740,38.4873
2023-10-20T13:21:49,2420,42.8014,5.9826,13.2983,4.59925,2453.748,38.4880
2023-10-20T13:24:49,2420,42.8014,5.9826,13.2985,4.59925,2453.717,38.4879
2023-10-20T13:27:49,2420,42.8014,5.9826,13.2998,4.59925,2453.762,38.4866
2023-10-20T13:30:50,2420,42.8014,5.9826,13.2982,4.59925,2453.709,38.4882
2023-10-20T13:33:49,2420,42.8014,5.9826,13.2981,4.59925,2453.717,38.4882
2023-10-20T13:36:49,2420,42.8014,5.9826,13.2978,4.59926,2453.740,38.4886
2023-10-20T13:39:49,2420,42.8014,5.9826,13.2980,4.59926,2453.740,38.4884
2023-10-20T13:42:49,2420,42.8014,5.9826,13.2998,4.59926,2453.717,38.4867
2023-10-20T13:45:49,2420,42.8014,5.9826,13.2986,4.59928,2453.702,38.4880
2023-10-20T13:48:49,2420,42.8014,5.9826,13.2991,4.59934,2453.717,38.4881
2023-10-20T13:51:49,2420,42.8014,5.9826,13.3004,4.59924,2453.740,38.4858
2023-10-20T13:54:49,2420,42.8014,5.9826,13.2978,4.59933,2453.717,38.4893
2023-10-20T13:57:49,2420,42.8014,5.9826,13.2980,4.59926,2453.695,38.4884
2023-10-20T14:00:49,2420,42.8014,5.9826,13.2982,4.59925,2453.717,38.4881
2023-10-20T14:03:49,2420,42.8014,5.9826,13.2979,4.59928,2453.695,38.4888
2023-10-20T14:06:49,2420,42.8014,5.9826,13.3001,4.59926,2453.680,38.4863
2023-10-20T14:09:49,2420,42.8014,5.9826,13.2982,4.59925,2453.717,38.4881
2023-10-20T14:12:49,2420,42.8014,5.9826,13.2978,4.59932,2453.695,38.4893
2023-10-20T14:15:49,2420,42.8014,5.9826,13.2982,4.59934,2453.717,38.4891
2023-10-20T14:18:49,2420,42.8014,5.9826,13.2985,4.59926,2453.717,38.4879
2023-10-20T14:21:49,2420,42.8014,5.9826,13.2987,4.59926,2453.672,38.4877
2023-10-20T14:24:49,2420,42.8014,5.9826,13.2998,4.59931,2453.717,38.4871
2023-10-20T14:27:49,2420,42.8014,5.9826,13.2982,4.59939,2453.717,38.4895
2023-10-20T14:30:49,2420,42.8014,5.9826,13.3002,4.59931,2453.695,38.4867
2023-10-20T14:33:49,2420,42.8014,5.9826,13.2983,4.59930,2453.702,38.4885
2023-10-20T14:36:49,2420,42.8014,5.9826,13.2979,4.59934,2453.717,38.4893
2023-10-20T14:39:49,2420,42.8014,5.9826,13.2990,4.59926,2453.695,38.4874
2023-10-20T14:42:49,2420,42.8014,5.9826,13.2993,4.59929,2453.695,38.4875
2023-10-20T14:45:49,2420,42.8014,5.9826,13.2978,4.59934,2453.695,38.4894
2023-10-20T14:48:49,2420,42.8014,5.9826,13.2980,4.59932,2453.695,38.4890
2023-10-20T14:51:49,2420,42.8014,5.9826,13.2979,4.59928,2453.695,38.4888
2023-10-20T14:54:49,2420,42.8014,5.9826,13.2982,4.59926,2453.695,38.4883
2023-10-20T14:57:49,2420,42.8014,5.9826,13.2986,4.59927,2453.695,38.4880
2023-10-20T15:00:49,2420,42.8014,5.9826,13.2998,4.59926,2453.695,38.4867
2023-10-20T15:03:49,2420,42.8014,5.9826,13.2980,4.59931,2453.709,38.4890
2023-10-20T15:06:49,2420,42.8014,5.9826,13.2982,4.59931,2453.709,38.4887
2023-10-20T15:09:49,2420,42.8014,5.9826,13.3008,4.59926,2453.672,38.4857
2023-10-20T15:12:49,2420,42.8014,5.9826,13.2982,4.59926,2453.672,38.4883
2023-10-20T15:15:49,2420,42.8014,5.9826,13.2985,4.59940,2453.657,38.4893
2023-10-20T15:18:49,2420,42.8014,5.9826,13.2988,4.59936,2453.695,38.4886
2023-10-20T15:21:49,2420,42.8014,5.9826,13.2993,4.59929,2453.695,38.4875
2023-10-20T15:24:49,2420,42.8014,5.9826,13.2982,4.59933,2453.672,38.4889
2023-10-20T15:27:49,2420,42.8014,5.9826,13.2982,4.59932,2453.717,38.4888
2023-10-20T15:30:50,2420,42.8014,5.9826,13.2978,4.59928,2453.695,38.4889
2023-10-20T15:33:49,2420,42.8014,5.9826,13.2979,4.59937,2453.695,38.4896
2023-10-20T15:36:49,2420,42.8014,5.9826,13.2982,4.59929,2453.672,38.4886
2023-10-20T15:39:49,2420,42.8014,5.9826,13.2997,4.59942,2453.672,38.4883
2023-10-20T15:42:49,2420,42.8014,5.9826,13.2979,4.59926,2453.717,38.4885
2023-10-20T15:45:49,2420,42.8014,5.9826,13.2984,4.59926,2453.680,38.4881
2023-10-20T15:48:49,2420,42.8014,5.9826,13.2979,4.59928,2453.672,38.4888
2023-10-20T15:51:49,2420,42.8014,5.9826,13.2986,4.59937,2453.672,38.4889
2023-10-20T15:54:50,2420,42.8014,5.9826,13.2993,4.59947,2453.672,38.4892
2023-10-20T15:57:49,2420,42.8014,5.9826,13.2985,4.59931,2453.672,38.4885
2023-10-20T16:00:49,2420,42.8014,5.9826,13.2985,4.59936,2453.709,38.4889
2023-10-20T16:03:49,2420,42.8014,5.9826,13.2987,4.59937,2453.672,38.4888